Regional Weather Roundup
Issued by NWS Sterling, VA

Home | Current Version | Previous Version | Text Only | Print | Product List | Glossary On
Versions: 1 2 3 4 5 6 7 8 9 10 11 12 13 14 15 16 17 18 19 20 21 22 23 24 25 26 27 28 29 30 31 32 33 34 35 36 37 38 39 40 41 42 43 44 45 46 47 48 49 50
000
ASUS41 KLWX 282111
RWRLWX

REGIONAL WEATHER ROUNDUP
NATIONAL WEATHER SERVICE BALTIMORE MD/WASHINGTON DC
500 PM EDT TUE MAR 28 2017

Note: "FAIR" indicates few or no clouds below 12,000 feet
with no significant weather and/or obstructions to visibility.
 TC=TEMPERATURE CELSIUS

 * =Non NWS site. Station does not report precipitation (e.g. rain,
    snow, etc.), thunder, or fog.

DCZ001-MDZ009-015-VAZ040>042-051-053>054-282200-
WASHINGTON METRO

CITY           SKY/WX    TMP DP  RH WIND       PRES   REMARKS
WASHINGTON NAT PTSUNNY   73  55  53 NW9       29.82F
DULLES         PTSUNNY   69  54  58 NW8       29.83S
ANDREWS AFB    MOSUNNY   69  54  57 NW9       29.82R
FT BELVOIR     CLOUDY    72  53  51 N7        29.82S
QUANTICO       PTSUNNY   69  56  62 S3        29.83S
COLLEGE PARK*  PTSUNNY   70  54  56 N5        29.81S
LEESBURG*      CLOUDY    70  57  64 N7        29.84S
MANASSAS*        N/A    N/A N/A N/A NE3       29.83S

$$

MDZ006>007-011-014-282200-
BALTIMORE METRO

CITY           SKY/WX    TMP DP  RH WIND       PRES   REMARKS
BWI AIRPORT    PTSUNNY   70  57  63 W8        29.81F
MD SCIENCE CTR   N/A     70  54  56 MISG      29.82S
MARTIN STATE   PTSUNNY   70  59  68 NW12      29.84S
ANNAPOLIS      SUNNY     67  55  65 NW8       29.81S
FORT MEADE*    MOSUNNY   68  54  60 NW3       29.84F

$$

MDZ012-015-019>023-282200-
MARYLAND EASTERN SHORE

CITY           SKY/WX    TMP DP  RH WIND       PRES   REMARKS
OCEAN CITY     MOSUNNY   61  53  75 S7        29.81F
SALISBURY      PTSUNNY   71  57  61 W12       29.82S
BAY BRIDGE AP* MOSUNNY   66  57  72 N8        29.82S HAZE
CAMBRIDGE*     MOSUNNY   66  61  82 SW5       29.83R
EASTON*        PTSUNNY   72  57  60 NW13      29.85S

$$

MDZ017>025-282200-
SOUTHERN MARYLAND

CITY           SKY/WX    TMP DP  RH WIND       PRES   REMARKS
PATUXENT RIVER LGT RAIN  63  61  93 N6        29.82F
ST INIGOES     CLOUDY    69  58  67 VRB3      29.82S THUNDER
LEONARDTOWN*   CLOUDY    61  59  94 CALM      29.84F

$$

MDZ003>005-282200-
NORTH CENTRAL MARYLAND

CITY           SKY/WX    TMP DP  RH WIND       PRES   REMARKS
FREDERICK*     CLOUDY    70  61  73 NE6       29.95R
HAGERSTOWN APT LGT RAIN  65  58  78 NE5       29.84S
WESTMINSTER*   CLOUDY    64  57  77 NW6       29.84R

$$

MDZ501>502-282200-
WESTERN MARYLAND

CITY           SKY/WX    TMP DP  RH WIND       PRES   REMARKS
OAKLAND*       CLOUDY    50  50 100 W7G17     29.92S FOG
CUMBERLAND*    PTSUNNY   68  52  56 NW6       29.90R

$$

VAZ025>031-282200-
SHENANDOAH VALLEY

CITY           SKY/WX    TMP DP  RH WIND       PRES   REMARKS
WINCHESTER*    CLOUDY    63  55  77 NW8       29.85R
FRONT ROYAL*   CLOUDY    68  55  64 NE6       29.84R
LURAY*         CLOUDY    68  57  68 W6        29.84S
NEW MARKET*    CLOUDY    64  57  80 CALM      29.85R
STAUNTON*      PTSUNNY   68  50  52 N7        29.87S
WAYNESBORO*    MOSUNNY   68  51  54 W6        29.86S

$$

WVZ021-048>050-054>055-282200-
EASTERN WEST VIRGINIA PANHANDLE

CITY           SKY/WX    TMP DP  RH WIND       PRES   REMARKS
MARTINSBURG    CLOUDY    68  54  60 N5        29.83S
PETERSBURG*    CLOUDY    68  53  57 W14       29.87S

$$

VAZ036>039-050-282200-
CENTRAL FOOTHILLS

CITY           SKY/WX    TMP DP  RH WIND       PRES   REMARKS
CHARLOTTESVILL CLOUDY    71  54  54 NE8       29.83R
CULPEPER*      PTSUNNY   69  60  70 CALM      29.85R
ORANGE*        CLOUDY    61  57  88 CALM      29.85F
GORDONSVILLE*  CLOUDY    63  57  82 NE5       29.83R HAZE
WARRENTON*     MOSUNNY   71  55  56 CALM      29.83S

$$

VAZ055>057-282200-
NORTH AND CENTRAL PIEDMONT

CITY           SKY/WX    TMP DP  RH WIND       PRES   REMARKS
FREDERICKSBRG* LGT RAIN  71  59  66 NW12      29.82S
STAFFORD*      CLOUDY    65  62  91 N6        29.87S

$$

NCZ024-NYZ072-PAZ021-071-VAZ022-071-282200-
OTHER REGIONAL OBSERVATIONS

CITY           SKY/WX    TMP DP  RH WIND       PRES   REMARKS
NEW YORK CITY  CLOUDY    42  40  92 E8        29.91R
PHILADELPHIA   CLOUDY    53  50  89 N7        29.85R
PITTSBURGH     CLOUDY    58  51  78 NW14      29.94R
ROANOKE        PTSUNNY   70  49  47 W10       29.90S
RICHMOND       CLOUDY    70  60  70 S7        29.83S
RALEIGH        PTSUNNY   78  54  43 W10G18    29.85F

$$

ANZ530>537-282200-
MARINE OBSERVATIONS

STATION/POSITION TIME  TEMP    WIND        PRES
                       AIR SEA DIR/SP/G
                 (UTC) (F)     (DEG/KT/KT) (MB)
THOMAS PT LIGHT  2100   61 47   60/  6/  7   N/A
BALT KEY BRIDGE  2048   66     320/  5/  5 1009.6F
COVE POINT       2048   58     200/  7/  9 1010.7R
LEWISETTA        2048   63 52   20/  6/  8 1009.6R
SOLOMONS ISLAND  2048   63 49  310/  2/  4   N/A
PINEY POINT      2048          320/  7/  8   N/A

$$




USA.gov is the U.S. government's official web portal to all federal, state and local government web resources and services.